This demonstration page uses our WeatherBlox Daily Observations layout. Learn more.

36.17497, -115.13722

Hourly Observations for October 9, 2018

Temp ( °F °C ) Dew Point ( °F °C ) Humidity (%) Winds ( mph kmh ) Pressure ( in mb ) Visibility ( mi km ) Precip ( " mm )
12:53 am 00:53 Clear 63 17.2 30 -1.1 29 29 N 3 6 29.83 1010 10 16.09344 0 0
1:53 am 01:53 Clear 64 17.8 31 -0.6 29 29 Calm 29.83 1010 10 16.09344 0 0
2:53 am 02:53 Clear 60 15.6 32 0 35 35 SW 5 7 29.83 1010 10 16.09344 0 0
3:53 am 03:53 Clear 60 15.6 32 0 35 35 SW 6 9 29.83 1010 10 16.09344 0 0
4:53 am 04:53 Clear 59 15 32 0 36 36 Calm 29.83 1010 10 16.09344 0 0
5:53 am 05:53 Clear 57 13.9 33 0.6 41 41 NNW 3 6 29.83 1010 10 16.09344 0 0
6:53 am 06:53 Sunny 57 13.9 34 1.1 42 42 NW 3 6 29.85 1011 10 16.09344 0 0
7:53 am 07:53 Sunny 60 15.6 34 1.1 38 38 Calm 29.85 1011 10 16.09344 0 0
8:53 am 08:53 Sunny 63 17.2 33 0.6 33 33 SSE 3 6 29.85 1011 10 16.09344 0 0
9:53 am 09:53 Sunny 66 18.9 33 0.6 29 29 ESE 8 13 29.85 1011 10 16.09344 0 0
10:53 am 10:53 Sunny 69 20.6 31 -0.6 24 24 SSE 8 13 29.85 1011 10 16.09344 0 0
11:53 am 11:53 Sunny 71 21.7 31 -0.6 23 23 ESE 3 6 29.8 1009 10 16.09344 0 0
12:53 pm 12:53 Sunny 73 22.8 31 -0.6 21 21 Calm 29.77 1008 10 16.09344 0 0
1:53 pm 13:53 Sunny 74 23.3 31 -0.6 20 20 SSW 5 7 29.74 1007 10 16.09344 0 0
2:53 pm 14:53 Sunny 77 25 30 -1.1 18 18 NE 5 7 29.71 1006 10 16.09344 0 0
3:53 pm 15:53 Sunny 77 25 29 -1.7 17 17 Calm 29.65 1004 10 16.09344 0 0
4:53 pm 16:53 Sunny 80 26.7 26 -3.3 14 14 WSW 15 24 29.62 1003 10 16.09344 0 0
5:53 pm 17:53 Sunny 78 25.6 28 -2.2 16 16 SW 10 17 29.62 1003 10 16.09344 0 0
6:53 pm 18:53 Clear 76 24.4 30 -1.1 18 18 SW 12 19 29.62 1003 10 16.09344 0 0
7:53 pm 19:53 Clear 76 24.4 30 -1.1 18 18 WSW 20 31 29.62 1003 10 16.09344 0 0
8:53 pm 20:53 Clear 75 23.9 28 -2.2 18 18 SW 13 20 29.62 1003 10 16.09344 0 0
9:53 pm 21:53 Clear 75 23.9 27 -2.8 17 17 WSW 18 30 29.62 1003 10 16.09344 0 0
10:53 pm 22:53 Clear 73 22.8 29 -1.7 19 19 SSW 14 22 29.65 1004 10 16.09344 0 0
11:53 pm 23:53 Clear 70 21.1 30 -1.1 23 23 W 6 9 29.65 1004 10 16.09344 0 0

Powered by AerisWeather